[Iaude] MPEC N11: 2024 MW1 [a=2.22,e=0.54,i=6.2,H=24.1]
    mpec at cfa.harvard.edu 
    mpec at cfa.harvard.edu
       
    Tue Jul  2 05:08:18 EDT 2024
    
    
  
M.P.E.C. 2024-N11                                  Issued 2024 July 2, 09:06 UT
     The Minor Planet Electronic Circulars contain information on unusual
         minor planets, routine data on comets and natural satellites,
         and occasional editorial announcements.  They are published
    on behalf of Division F of the International Astronomical Union by the
          Minor Planet Center, Smithsonian Astrophysical Observatory,
                          Cambridge, MA 02138, U.S.A.
			  
             Prepared using the Tamkin Foundation Computer Network
                              MPC at CFA.HARVARD.EDU
            URL https://www.minorplanetcenter.net/    ISSN 1523-6714
                                    2024 MW1                                    
Observations:
     K24M01W*KC2024 06 30.92549 21 55 41.85 +07 23 12.5          19.0 GXEN011L51
     K24M01W KC2024 06 30.92673 21 55 43.01 +07 23 28.3          19.5 GXEN011L51
     K24M01W KC2024 06 30.92797 21 55 44.16 +07 23 44.0          19.5 GXEN011L51
     K24M01W bC2024 06 30.95360621 56 09.70 +07 29 05.0          20.0 GVEN011L01
     K24M01W bC2024 06 30.95508821 56 11.21 +07 29 23.2          19.7 GVEN011L01
     K24M01W IC2024 06 30.95657121 56 12.57 +07 29 41.3          18.9 GVEN011L01
     K24M01W IC2024 06 30.95805321 56 14.00 +07 30 01.9          19.4 GVEN011L01
     K24M01W KB2024 07 01.00667721 57 00.59 +07 40 15.2          19.5 GXEN011I93
     K24M01W KB2024 07 01.01146221 57 05.05 +07 41 15.6          19.9 GXEN011I93
     K24M01W KC2024 07 01.01321 21 57 05.55 +07 41 40.6          19.1 GVEN011104
     K24M01W KB2024 07 01.01615821 57 09.41 +07 42 14.7          19.6 GXEN011I93
     K24M01W KC2024 07 01.01900 21 57 10.90 +07 42 54.0          19.3 GVEN011104
     K24M01W KB2024 07 01.04202021 57 33.51 +07 47 42.8          19.6 GXEN011958
     K24M01W KB2024 07 01.04528821 57 36.48 +07 48 24.1          19.6 GXEN011958
     K24M01W KB2024 07 01.04857221 57 39.58 +07 49 06.5          19.7 GXEN011958
     K24M01W KC2024 07 01.31608922 01 54.24 +08 44 38.1          20.4 GVEN011H21
     K24M01W KC2024 07 01.31803922 01 55.98 +08 45 01.8          20.2 GVEN011H21
     K24M01W KC2024 07 01.32003222 01 57.79 +08 45 26.7          20.0 GVEN011H21
     K24M01W KC2024 07 01.32200322 01 59.57 +08 45 51.1          20.0 GVEN011H21
     K24M01W KC2024 07 01.32406022 02 01.41 +08 46 16.2          20.1 GVEN011H21
     K24M01W KC2024 07 01.93214 22 11 32.07 +10 47 35.3          19.5 GXEN011L51
     K24M01W KC2024 07 01.93420 22 11 33.89 +10 47 59.2          19.7 GXEN011L51
     K24M01W KC2024 07 01.93624 22 11 35.72 +10 48 23.9          19.8 GXEN011L51
     K24M01W KC2024 07 02.35470722 17 53.95 +12 08 44.5          20.4 GVEN011H21
     K24M01W KC2024 07 02.35750322 17 56.33 +12 09 16.2          20.2 GVEN011H21
     K24M01W KC2024 07 02.36030122 17 58.72 +12 09 47.9          20.5 GVEN011H21
Observer details:
104 San Marcello Pistoiese.  Observers P. Bacci, M. Maestripieri.  Measurer P.
    Bacci.  0.60-m f/4 reflector + CCD.
958 Observatoire de Dax.  Observer P. Dupouy.  0.50-m f/4.5 Reflector + CMO.
H21 Astronomical Research Observatory, Westfield.  Observer R. Holmes.
    Measurers T. Linder, R. Holmes, L. Horn.  0.76-m f/3.0 astrograph + CCD.
I93 St Pardon de Conques.  Observer F. Losse.  0.40-m f/3.7 reflector + CMO.
L01 Visnjan Observatory, Tican.  Observer K. Korlevic.  1.0-m f/2.9 reflector
    + CCD.
L51 MARGO, Nauchnyi.  Observer G. Borisov.  0.50-m f/1.9 reflector + CCD.
Orbital elements:
2024 MW1                                                 Earth MOID = 0.0341 AU
Epoch 2024 Mar. 31.0 TT = JDT 2460400.5                 MPC                     
M 327.49642              (2000.0)            P               Q                  
n   0.29767907     Peri.   29.09285     +0.52190720     +0.84620091             
a   2.2214533      Node   272.55707     -0.80195344     +0.44381636             
e   0.5382148      Incl.    6.17757     -0.29066056     +0.29490857             
P   3.31           H   24.16          G   0.15           U   9                  
Residuals in seconds of arc
240630 L51  0.5+  0.3+    240701 104  0.5-  0.1-    240701 H21  0.4+  0.0
240630 L51  0.7+  0.3+    240701 I93  0.1+  0.2-    240701 H21  0.2+  0.2-
240630 L51  0.6+  0.3+    240701 104  0.3-  0.3+    240701 L51  0.4-  0.3-
240630 L01 (1.6-  0.9+)   240701 958  0.4+  0.2-    240701 L51  0.5-  0.6-
240630 L01  0.2+  0.3+    240701 958  0.2-  0.0     240701 L51  0.2-  0.0
240630 L01  0.2-  0.4-    240701 958  0.9+  1.0+    240702 H21  0.0   0.1-
240630 L01 (0.4+  1.4+)   240701 H21  0.4+  0.0     240702 H21  0.0   0.0
240701 I93  0.1-  0.1+    240701 H21  0.1+  0.3-    240702 H21  0.1+  0.1+
240701 I93  0.1+  0.0     240701 H21  0.3+  0.0
Ephemeris:
2024 MW1                 a,e,i = 2.22, 0.54, 6                   q = 1.0258
Date    TT    R. A. (2000) Decl.     Delta      r    Elong.  Phase     V
2024 06 02    16 48 03.1 -38 25 32   0.1615  1.1700   163.7    14.1    21.3
...
2024 06 17    18 20 32.9 -32 07 21   0.08128 1.0955   167.9    11.2    19.6
...
2024 06 25    20 13 51.4 -14 39 13   0.05553 1.0653   150.8    27.7    19.3
...
2024 07 01    21 56 47.7 +07 40 21   0.05517 1.0478   123.0    54.4    20.0
2024 07 02    22 12 28.7 +11 02 08   0.05691 1.0453   118.8    58.5    20.1
2024 07 03    22 27 22.3 +14 07 07   0.05907 1.0430   114.9    62.1    20.3
...
2024 07 09    23 38 49.1 +26 46 10   0.07820 1.0321    99.2    76.5    21.4
...
2024 07 17    00 35 58.4 +33 56 23   0.1113  1.0258    91.8    82.0    22.3
...
2024 08 01    01 27 35.9 +38 16 13   0.1756  1.0399    93.3    77.0    23.2
A. U. Tomatic                (C) Copyright 2024 MPC           M.P.E.C. 2024-N11
    
    
More information about the Iaude
mailing list